DW1188 Weather Reports


Display with metric or nautical units.
time (UTC)temp
F
wind
direction
speed
MPH
gust
MPH
rain 1hr
in
rain 24hr
in
rain mn
in
humidity
%
barometer
mb
20260904061709 52 213 0.0 2.0 0.04 0.13 0.13 87 1011.8
20260904060453 52 145 0.0 0.0 0.05 0.12 0.12 85 1011.7
20260904055306 53 142 0.0 0.0 0.04 0.10 0.10 84 1011.6
20260904054103 53 115 0.0 0.0 0.00 0.09 0.10 84 1011.5
20260904051449 55 139 0.0 0.0 0.00 0.09 0.09 76 1011.3
20260904050248 55 89 0.0 0.0 0.00 0.08 0.08 71 1011.2
20260904045027 56 138 0.0 0.0 0.00 0.08 0.08 68 1011.3
20260904042537 57 111 0.0 0.0 0.00 0.08 0.08 62 1011.3
20260904041317 58 121 0.0 7.0 0.00 0.08 0.08 57 1011.2
20260904033511 60 43 0.0 0.0 0.00 0.08 0.08 56 1011.0
20260904032318 60 43 0.0 0.0 0.00 0.12 0.08 55 1010.9
20260904025745 60 35 0.0 0.0 0.00 0.16 0.08 54 1010.8
20260904024610 61 30 0.0 0.0 0.00 0.16 0.08 54 1010.7
20260904023433 61 30 0.0 0.0 0.00 0.16 0.08 53 1010.8
20260904022228 61 30 0.0 0.0 0.00 0.16 0.08 52 1010.9
20260904021011 61 30 0.0 0.0 0.00 0.16 0.08 52 1011.0
20260904015747 61 30 0.0 0.0 0.00 0.16 0.08 51 1010.9
20260904014514 62 9 0.0 0.0 0.00 0.16 0.08 50 1011.0
20260904013345 62 9 0.0 0.0 0.00 0.16 0.08 48 1011.1
20260904012211 62 9 0.0 0.0 0.00 0.16 0.08 47 1011.1
20260904010948 62 5 0.0 0.0 0.00 0.16 0.08 48 1011.2
20260904004430 62 5 0.0 0.0 0.00 0.16 0.08 45 1011.3
20260904003218 62 355 0.0 0.0 0.00 0.16 0.08 46 1011.5
20260904001955 62 84 0.0 0.0 0.00 0.16 0.08 47 1011.7
20260904000736 62 57 0.0 0.0 0.00 0.16 0.08 48 1011.8
20260903235519 62 115 0.0 0.0 0.00 0.16 0.08 47 1011.9
20260903234347 62 124 0.0 0.0 0.00 0.16 0.08 48 1012.1
20260903233107 63 176 0.0 0.0 0.00 0.16 0.08 49 1012.0
20260903230548 63 162 0.0 4.0 0.00 0.16 0.08 49 1012.2
20260903225403 62 112 0.0 1.0 0.00 0.16 0.08 51 1012.2
20260903224202 62 128 1.0 11.0 0.00 0.16 0.08 50 1012.4
20260903222938 63 188 0.0 2.0 0.00 0.16 0.08 49 1012.5
20260903215001 63 173 0.0 4.0 0.00 0.16 0.08 49 1012.5
20260903213822 62 194 0.0 5.0 0.00 0.16 0.08 50 1012.5
20260903212616 62 149 0.0 6.0 0.00 0.16 0.08 50 1012.6
20260903203419 61 194 0.0 11.0 0.00 0.16 0.08 53 1012.9
20260903202214 60 169 3.0 13.0 0.00 0.16 0.08 54 1013.0
20260903200952 60 196 5.0 14.0 0.00 0.16 0.08 54 1013.0
20260903195812 61 200 0.0 9.0 0.00 0.16 0.08 54 1013.0
20260903194629 60 175 2.0 10.0 0.00 0.16 0.08 56 1013.2
20260903193450 59 222 1.0 14.0 0.00 0.16 0.08 56 1013.1
20260903192222 59 229 1.0 14.0 0.00 0.16 0.08 57 1013.3
20260903191009 59 232 0.0 0.0 0.00 0.16 0.08 59 1013.3
20260903185812 58 203 0.0 0.0 0.00 0.18 0.08 59 1013.2
20260903184614 58 243 0.0 6.0 0.00 0.19 0.08 61 1013.2
20260903182004 58 217 3.0 19.0 0.00 0.23 0.08 59 1013.1
20260903180813 58 170 5.0 19.0 0.00 0.23 0.08 58 1013.2
20260903175636 58 178 7.0 17.0 0.00 0.23 0.08 63 1013.2
20260903174439 58 217 5.0 14.0 0.00 0.23 0.08 64 1013.0
20260903173231 58 186 1.0 12.0 0.00 0.23 0.08 65 1013.0
20260903172050 57 225 0.0 10.0 0.00 0.23 0.08 72 1012.9
20260903170855 56 223 0.0 0.0 0.00 0.23 0.08 75 1013.0
20260903165703 56 208 0.0 1.0 0.00 0.23 0.08 73 1013.0
20260903163105 55 196 0.0 11.0 0.00 0.23 0.08 79 1012.9
20260903161858 54 189 0.0 4.0 0.00 0.23 0.08 80 1013.0
20260903160626 54 163 2.0 10.0 0.00 0.23 0.08 83 1012.9
20260903154157 53 167 0.0 7.0 0.00 0.23 0.08 84 1012.9
20260903152951 53 169 1.0 0.0 0.00 0.23 0.08 86 1012.8
20260903145157 53 144 0.0 0.0 0.00 0.23 0.08 88 1012.6
20260903143947 53 208 0.0 0.0 0.00 0.23 0.08 89 1012.4
20260903142747 52 173 0.0 0.0 0.00 0.23 0.08 89 1012.3
20260903141543 52 157 0.0 0.0 0.00 0.23 0.08 89 1012.4
20260903140311 52 167 0.0 0.0 0.00 0.23 0.08 90 1012.3
20260903135100 52 168 0.0 0.0 0.00 0.23 0.08 90 1012.1
20260903133848 52 157 0.0 0.0 0.00 0.23 0.08 90 1012.0
20260903132654 52 168 0.0 0.0 0.00 0.23 0.08 90 1011.7
20260903130118 52 170 0.0 0.0 0.00 0.21 0.06 90 1011.3
20260903124922 53 143 0.0 0.0 0.00 0.20 0.06 90 1011.2
20260903123724 53 134 0.0 0.0 0.00 0.20 0.06 90 1011.2
20260903122452 53 163 0.0 0.0 0.00 0.20 0.06 90 1011.1
20260903121301 53 165 0.0 0.0 0.00 0.19 0.05 90 1011.1
20260903120058 53 169 0.0 0.0 0.00 0.19 0.05 90 1011.0
20260903114915 53 171 0.0 0.0 0.00 0.18 0.04 90 1010.9
20260903113701 53 171 0.0 0.0 0.00 0.18 0.04 90 1010.8
20260903112501 53 171 0.0 0.0 0.00 0.18 0.04 89 1010.7
20260903105947 54 171 0.0 0.0 0.00 0.16 0.02 89 1010.7
20260903103320 54 181 0.0 0.0 0.00 0.16 0.02 89 1010.6
20260903102041 54 171 0.0 0.0 0.00 0.16 0.02 89 1010.5
20260903100837 54 171 0.0 0.0 0.00 0.16 0.02 90 1010.4
20260903095622 54 181 0.0 0.0 0.00 0.16 0.02 89 1010.3
20260903094355 54 181 0.0 0.0 0.00 0.16 0.02 89 1010.3
20260903093150 54 181 0.0 0.0 0.06 0.16 0.02 88 1010.3
20260903091924 54 178 0.0 0.0 0.00 0.15 0.01 87 1010.2
20260903090729 55 180 0.0 0.0 0.00 0.14 0.00 86 1010.1
20260903085512 55 196 0.0 5.0 0.00 0.14 0.00 83 1010.2
20260903084339 56 159 0.0 0.0 0.00 0.14 0.00 82 1010.1
20260903083100 56 167 0.0 0.0 0.00 0.14 0.00 81 1010.0
20260903081849 56 182 0.0 0.0 0.00 0.14 0.00 81 1010.1
20260903080708 56 186 0.0 0.0 0.00 0.14 0.00 81 1010.2
20260903075437 56 185 0.0 0.0 0.00 0.14 0.00 80 1010.3
20260903074248 56 186 0.0 0.0 0.00 0.14 0.00 79 1010.2
20260903073019 56 163 0.0 0.0 0.00 0.14 0.00 79 1010.3
20260903071844 56 151 0.0 0.0 0.00 0.14 0.00 79 1010.3
20260903070706 56 159 0.0 0.0 0.00 0.14 0.00 79 1010.3
20260903065436 56 145 0.0 0.0 0.00 0.14 0.15 79 1010.3
20260903064227 56 144 0.0 0.0 0.00 0.14 0.15 78 1010.4
20260903063034 57 150 0.0 0.0 0.00 0.14 0.15 79 1010.3